Regional Weather Roundup
Issued by NWS Northern Indiana

Home | Current Version | Previous Version | Graphics & Text | Print | Product List | Glossary On
Versions: 1 2 3 4 5 6 7 8 9 10 11 12 13 14 15 16 17 18 19 20 21 22 23 24 25 26 27 28 29 30 31 32 33 34 35 36 37 38 39 40 41 42 43 44 45 46 47 48 49 50
000
ASUS43 KIWX 200210
RWRIWX

KIWX WEATHER ROUNDUP
NATIONAL WEATHER SERVICE NORTHERN INDIANA
1000 PM EDT SAT AUG 19 2017

NOTE: "FAIR" INDICATES FEW OR NO CLOUDS BELOW 12,000 FEET WITH NO
SIGNIFICANT WEATHER AND/OR OBSTRUCTIONS TO VISIBILITY.

* THESE STATIONS ARE NOT UNDER NWS QUALITY CONTROL. THEY ALSO MAY NOT
  REPORT WEATHER SUCH AS PRECIPITATION OR FOG.

INZ001>027-200300-
NORTHERN INDIANA

CITY           SKY/WX    TMP DP  RH WIND       PRES   REMARKS
GARY*          CLEAR     64  59  82 VRB3      29.97S
VALPARAISO     CLEAR     66  60  81 CALM      29.99R
MICHIGAN CITY* CLEAR     63  63 100 CALM      29.99R
LAPORTE*       CLEAR     61  56  83 CALM      30.00R
KNOX*          CLEAR     63  61  94 CALM      29.99R
SOUTH BEND     CLEAR     65  61  87 CALM      29.99R
GOSHEN         CLEAR     68  59  73 CALM      29.99R
MONTICELLO*    CLEAR     69  63  80 CALM      29.97R
LOGANSPORT*    CLEAR     66  61  82 CALM      29.99R
ROCHESTER*     CLEAR     70  63  78 CALM      30.00R
WARSAW*        CLEAR     66  63  88 CALM      30.00R
AUBURN*        CLEAR     66  61  82 CALM      30.00R
FORT WAYNE     CLEAR     70  60  70 CALM      30.00R
HUNTINGTON*    CLEAR     65  63  91 CALM      29.99S
PERU/GRISSOM   CLEAR     67  62  84 CALM      29.98R
MARION*        CLEAR     66  63  88 CALM      30.00R

$$
INZ028>050-200300-
CENTRAL INDIANA

CITY           SKY/WX    TMP DP  RH WIND       PRES   REMARKS
LAFAYETTE      CLEAR     71  64  78 NE3       29.97R
KOKOMO*        PTCLDY    68  64  87 NE3         N/A
MUNCIE*        CLEAR     68  63  84 E3        29.99R
INDIANAPOLIS   PTCLDY    78  63  59 NE12      29.96R

$$
MIZ043>046-050>051-056>058-064>065-071>073-077>080-200300-
SOUTHWEST LOWER MICHIGAN

CITY           SKY/WX    TMP DP  RH WIND       PRES   REMARKS
BATTLE CREEK   CLEAR     67  59  75 NW3       30.00R
BENTON HARBOR  CLEAR     63  60  90 CALM      29.98R
COLDWATER*     CLEAR     65  60  85 CALM      30.00R
HILLSDALE*     CLOUDY    63  57  82 CALM      30.00R
HOLLAND        CLEAR     64  61  90 CALM      29.98R
GRAND RAPIDS   CLEAR     67  60  78 S3        29.98R
KALAMAZOO      CLEAR     67  55  65 NW5       29.99R
STURGIS*       CLEAR     65  59  82 CALM      29.99R
THREE RIVERS*  FAIR      66  58  74 CALM      30.00R

$$
OHZ001>008-015>018-024>025-200300-
NORTHWEST OHIO

CITY           SKY/WX    TMP DP  RH WIND       PRES   REMARKS
WAUSEON*       FAIR      64  63  94 CALM      29.98R
DEFIANCE       CLEAR     66  62  87 CALM      29.99R
FINDLAY        CLEAR     68  60  75 S3        29.99R
TOLEDO EXPRESS CLEAR     65  64  97 CALM      29.98R
TOLEDO METCALF CLEAR     70  61  73 CALM      29.99R
LIMA           CLEAR     63  60  90 E3        30.00R

$$
AND FOR LAKE MICHIGAN COASTAL AND OPEN LAKE BUOY OBSERVATIONS

STATION/POSITION TEMP    WIND        PRES    VSBY  WAVE
                 AIR SEA DIR/SP/G                  HT/PER
                 (F)     (DEG/KT/KT) (MB)    (MI)  (FT/S)
CALUMET HARBOR    75     100/  6/  8 1014.1R
MICHIGAN CITY     72      70/  3/  4   N/A
BURNS HARBOR      75     110/  6/  7 1015.6R
SAINT JOSEPH      68      CALM  /  1 1016.3
SOUTH LAKE BUOY   72 72  170/  8/  8 1014.5R         1
4 MI NW BRIDGMAN  73 79  150/  4/  6 1015.0          1/ 3
MICHIGAN CITY     73 75  130/  6/  8   N/A           1

$$
&&



USA.gov is the U.S. government's official web portal to all federal, state and local government web resources and services.